When you browse on this site, cookies collect data to enhance your experience and personalize the content and advertising you see.
Visit our Privacy Policy to learn more. By continuing to use the site, you agree to this use of cookies and data.
  • In Deutschland
  • Länderverzeichnis
  • Für 7 Tage
  • Wassertemperatur
  • Wetterkarte
  • Widgets
  • user-avatar
    Anmelden

    Stündliche Wetter Tirana

    Heute, 19 August, Montag

    Zeit Temperatur Niederschläge Wind Luftdruck Luftfeuchtigkeit
    00:00 +23°C° 0 mm 1 m/S 754 mmHg 52%
    01:00 +23°C° 0 mm 1 m/S 754 mmHg 50%
    02:00 +23°C° 0 mm 1 m/S 754 mmHg 49%
    03:00 +22°C° 0 mm 1 m/S 754 mmHg 48%
    04:00 +22°C° 0 mm 1 m/S 754 mmHg 47%
    05:00 +24°C° 0 mm 1 m/S 754 mmHg 42%
    06:00 +26°C° 0 mm 1 m/S 754 mmHg 36%
    07:00 +28°C° 0 mm 1 m/S 754 mmHg 31%
    08:00 +30°C° 0 mm 2 m/S 754 mmHg 28%
    09:00 +32°C° 0 mm 2 m/S 754 mmHg 25%
    10:00 +35°C° 0 mm 2 m/S 754 mmHg 22%
    11:00 +36°C° 0 mm 3 m/S 754 mmHg 23%
    12:00 +36°C° 0 mm 3 m/S 754 mmHg 25%
    13:00 +36°C° 0 mm 4 m/S 754 mmHg 27%
    14:00 +35°C° 0 mm 4 m/S 753 mmHg 27%
    15:00 +35°C° 0 mm 4 m/S 753 mmHg 28%
    16:00 +35°C° 0 mm 3 m/S 753 mmHg 28%
    17:00 +31°C° 0 mm 3 m/S 753 mmHg 36%
    18:00 +29°C° 0 mm 2 m/S 753 mmHg 43%
    19:00 +26°C° 0 mm 1 m/S 754 mmHg 51%
    20:00 +25°C° 0 mm 1 m/S 754 mmHg 52%
    21:00 +25°C° 0 mm 1 m/S 754 mmHg 53%
    22:00 +24°C° 0 mm 1 m/S 754 mmHg 54%
    23:00 +24°C° 0 mm 1 m/S 754 mmHg 53%

    Morgen, 20 August, Dienstag

    Zeit Temperatur Niederschläge Wind Luftdruck Luftfeuchtigkeit
    00:00 +24°C° 0 mm 1 m/S 754 mmHg 53%
    01:00 +24°C° 0 mm 1 m/S 754 mmHg 52%
    02:00 +23°C° 0 mm 1 m/S 754 mmHg 52%
    03:00 +23°C° 0 mm 1 m/S 754 mmHg 52%
    04:00 +23°C° 0 mm 1 m/S 754 mmHg 52%
    05:00 +25°C° 0 mm 1 m/S 754 mmHg 46%
    06:00 +27°C° 0 mm 1 m/S 755 mmHg 41%
    07:00 +29°C° 0 mm 1 m/S 755 mmHg 36%
    08:00 +31°C° 0 mm 1 m/S 755 mmHg 31%
    09:00 +34°C° 0 mm 1 m/S 755 mmHg 27%
    10:00 +37°C° 0 mm 2 m/S 755 mmHg 23%
    11:00 +37°C° 0 mm 3 m/S 755 mmHg 24%
    12:00 +38°C° 0 mm 4 m/S 754 mmHg 25%
    13:00 +39°C° 0 mm 5 m/S 754 mmHg 26%
    14:00 +37°C° 0 mm 4 m/S 754 mmHg 28%
    15:00 +36°C° 0 mm 4 m/S 754 mmHg 30%
    16:00 +35°C° 0 mm 3 m/S 753 mmHg 32%
    17:00 +32°C° 0 mm 2 m/S 754 mmHg 40%
    18:00 +29°C° 0 mm 1 m/S 754 mmHg 48%
    19:00 +27°C° 0 mm 1 m/S 754 mmHg 57%
    20:00 +26°C° 0 mm 1 m/S 754 mmHg 57%
    21:00 +26°C° 0 mm 1 m/S 754 mmHg 57%
    22:00 +25°C° 0 mm 1 m/S 755 mmHg 58%
    23:00 +25°C° 0 mm 1 m/S 754 mmHg 58%

    übermorgen, 21 August, Mittwoch

    Zeit Temperatur Niederschläge Wind Luftdruck Luftfeuchtigkeit
    00:00 +23°C° 0 mm 0 m/S 754 mmHg 57%
    01:00 +23°C° 0 mm 0 m/S 754 mmHg 57%
    02:00 +22°C° 0 mm 0 m/S 754 mmHg 57%
    03:00 +24°C° 0 mm 1 m/S 754 mmHg 57%
    04:00 +24°C° 0 mm 1 m/S 754 mmHg 56%
    05:00 +26°C° 0 mm 1 m/S 754 mmHg 50%
    06:00 +28°C° 0 mm 1 m/S 754 mmHg 44%
    07:00 +30°C° 0 mm 1 m/S 755 mmHg 38%
    08:00 +32°C° 0 mm 1 m/S 754 mmHg 34%
    09:00 +35°C° 0 mm 2 m/S 754 mmHg 29%
    10:00 +37°C° 0 mm 2 m/S 754 mmHg 25%
    11:00 +37°C° 0 mm 3 m/S 754 mmHg 26%
    12:00 +37°C° 0 mm 4 m/S 753 mmHg 27%
    13:00 +37°C° 0 mm 4 m/S 753 mmHg 29%
    14:00 +37°C° 0 mm 4 m/S 753 mmHg 30%
    15:00 +36°C° 0 mm 3 m/S 752 mmHg 32%
    16:00 +35°C° 0 mm 2 m/S 752 mmHg 34%
    17:00 +32°C° 0 mm 2 m/S 752 mmHg 42%
    18:00 +29°C° 0 mm 1 m/S 753 mmHg 51%
    19:00 +27°C° 0 mm 1 m/S 753 mmHg 59%
    20:00 +26°C° 0 mm 1 m/S 753 mmHg 59%
    21:00 +26°C° 0 mm 1 m/S 753 mmHg 60%
    22:00 +26°C° 0 mm 1 m/S 753 mmHg 60%
    23:00 +25°C° 0 mm 1 m/S 753 mmHg 59%

    22 August, Donnerstag

    Zeit Temperatur Niederschläge Wind Luftdruck Luftfeuchtigkeit
    00:00 +25°C° 0 mm 1 m/S 753 mmHg 58%
    01:00 +25°C° 0 mm 1 m/S 753 mmHg 57%
    02:00 +25°C° 0 mm 1 m/S 753 mmHg 56%
    03:00 +24°C° 0 mm 1 m/S 753 mmHg 56%
    04:00 +24°C° 0 mm 1 m/S 753 mmHg 55%
    05:00 +26°C° 0 mm 1 m/S 753 mmHg 49%
    06:00 +28°C° 0 mm 1 m/S 753 mmHg 43%
    07:00 +30°C° 0 mm 1 m/S 753 mmHg 37%
    08:00 +32°C° 0 mm 1 m/S 753 mmHg 32%
    09:00 +34°C° 0 mm 1 m/S 753 mmHg 28%
    10:00 +38°C° 0 mm 2 m/S 753 mmHg 23%
    11:00 +38°C° 0 mm 3 m/S 753 mmHg 24%
    12:00 +38°C° 0 mm 4 m/S 753 mmHg 24%
    13:00 +40°C° 0 mm 5 m/S 752 mmHg 25%
    14:00 +39°C° 0 mm 5 m/S 752 mmHg 27%
    15:00 +37°C° 0 mm 4 m/S 752 mmHg 29%
    16:00 +36°C° 0 mm 4 m/S 752 mmHg 32%
    17:00 +33°C° 0 mm 3 m/S 752 mmHg 41%
    18:00 +30°C° 0 mm 2 m/S 752 mmHg 50%
    19:00 +27°C° 0 mm 1 m/S 752 mmHg 60%
    20:00 +26°C° 0 mm 1 m/S 752 mmHg 60%
    21:00 +26°C° 0 mm 1 m/S 753 mmHg 60%
    22:00 +25°C° 0 mm 1 m/S 753 mmHg 61%
    23:00 +25°C° 0 mm 1 m/S 753 mmHg 61%

    23 August, Freitag

    Zeit Temperatur Niederschläge Wind Luftdruck Luftfeuchtigkeit
    00:00 +25°C° 0 mm 1 m/S 753 mmHg 60%
    01:00 +25°C° 0 mm 1 m/S 753 mmHg 60%
    02:00 +25°C° 0 mm 1 m/S 753 mmHg 60%
    03:00 +24°C° 0 mm 1 m/S 752 mmHg 60%
    04:00 +24°C° 0 mm 1 m/S 752 mmHg 59%
    05:00 +26°C° 0 mm 1 m/S 753 mmHg 52%
    06:00 +28°C° 0 mm 1 m/S 753 mmHg 45%
    07:00 +30°C° 0 mm 1 m/S 753 mmHg 37%
    08:00 +33°C° 0 mm 1 m/S 753 mmHg 32%
    09:00 +36°C° 0 mm 2 m/S 753 mmHg 27%
    10:00 +39°C° 0 mm 2 m/S 753 mmHg 22%
    11:00 +38°C° 0 mm 3 m/S 752 mmHg 25%
    12:00 +37°C° 0 mm 3 m/S 752 mmHg 27%
    13:00 +37°C° 0 mm 4 m/S 752 mmHg 30%
    14:00 +36°C° 0 mm 4 m/S 752 mmHg 31%
    15:00 +36°C° 0 mm 3 m/S 752 mmHg 32%
    16:00 +35°C° 0 mm 2 m/S 751 mmHg 34%
    17:00 +34°C° 0 mm 2 m/S 752 mmHg 40%
    18:00 +31°C° 0 mm 2 m/S 752 mmHg 46%
    19:00 +29°C° 0 mm 2 m/S 752 mmHg 52%
    20:00 +28°C° 0.2 mm 3 m/S 752 mmHg 54%
    21:00 +27°C° 0.2 mm 4 m/S 753 mmHg 57%
    22:00 +27°C° 0.2 mm 4 m/S 753 mmHg 60%
    23:00 +27°C° 0 mm 4 m/S 753 mmHg 60%

    24 August, Samstag

    Zeit Temperatur Niederschläge Wind Luftdruck Luftfeuchtigkeit
    00:00 +27°C° 0 mm 4 m/S 752 mmHg 60%
    01:00 +27°C° 0 mm 3 m/S 752 mmHg 60%
    02:00 +26°C° 0 mm 3 m/S 752 mmHg 58%
    03:00 +26°C° 0 mm 2 m/S 752 mmHg 56%
    04:00 +26°C° 0 mm 2 m/S 752 mmHg 54%
    05:00 +27°C° 0 mm 2 m/S 752 mmHg 50%
    06:00 +29°C° 0 mm 2 m/S 752 mmHg 46%
    07:00 +30°C° 0 mm 2 m/S 752 mmHg 42%
    08:00 +34°C° 0 mm 3 m/S 752 mmHg 35%
    09:00 +36°C° 0 mm 3 m/S 752 mmHg 28%
    10:00 +39°C° 0 mm 3 m/S 752 mmHg 20%
    11:00 +40°C° 0 mm 5 m/S 752 mmHg 21%
    12:00 +40°C° 0 mm 6 m/S 752 mmHg 22%
    13:00 +39°C° 0 mm 7 m/S 752 mmHg 22%
    14:00 +39°C° 0 mm 7 m/S 751 mmHg 23%
    15:00 +39°C° 0 mm 7 m/S 751 mmHg 25%
    16:00 +39°C° 0 mm 6 m/S 751 mmHg 26%
    17:00 +36°C° 0 mm 6 m/S 751 mmHg 31%
    18:00 +33°C° 0 mm 5 m/S 751 mmHg 36%
    19:00 +30°C° 0 mm 5 m/S 752 mmHg 41%
    20:00 +30°C° 0 mm 4 m/S 752 mmHg 43%
    21:00 +29°C° 0 mm 3 m/S 752 mmHg 45%
    22:00 +28°C° 0 mm 3 m/S 752 mmHg 47%
    23:00 +28°C° 0 mm 2 m/S 752 mmHg 47%
    Mehr zeigen